Time,TemperatureF,DewpointF,PressureIn,WindDirection,WindDirectionDegrees,WindSpeedMPH,WindSpeedGustMPH,Humidity,HourlyPrecipIn,Conditions,Clouds,dailyrainin,SoftwareType,DateUTC
2013-01-12 00:00:00,36.7,31.1,30.22,NNE,23,0.4,0.4,80,0.00,,,0.02,WUHU216HW,2013-01-12 08:00:00,
2013-01-12 00:05:00,36.7,31.1,30.22,WSW,248,0.2,0.4,80,0.00,,,0.00,WUHU216HW,2013-01-12 08:05:00,
2013-01-12 00:10:00,36.5,31.0,30.22,North,0,0.0,0.4,80,0.00,,,0.00,WUHU216HW,2013-01-12 08:10:00,
2013-01-12 00:15:00,36.4,30.8,30.22,North,0,0.0,0.2,80,0.00,,,0.00,WUHU216HW,2013-01-12 08:15:00,
2013-01-12 00:20:00,36.4,30.8,30.21,North,0,0.0,0.2,80,0.00,,,0.00,WUHU216HW,2013-01-12 08:20:00,
2013-01-12 00:25:00,36.2,30.6,30.21,North,0,0.2,1.3,80,0.00,,,0.00,WUHU216HW,2013-01-12 08:25:00,
2013-01-12 00:30:00,36.2,30.9,30.21,NNW,338,0.7,1.3,81,0.00,,,0.00,WUHU216HW,2013-01-12 08:30:00,
2013-01-12 00:35:00,36.4,31.1,30.21,WNW,293,0.4,1.8,81,0.00,,,0.00,WUHU216HW,2013-01-12 08:35:00,
2013-01-12 00:40:00,36.4,31.1,30.21,NNW,338,1.1,1.8,81,0.00,,,0.00,WUHU216HW,2013-01-12 08:40:00,
2013-01-12 00:45:00,36.5,31.5,30.21,NW,315,0.4,1.6,82,0.00,,,0.00,WUHU216HW,2013-01-12 08:45:00,
2013-01-12 00:50:00,36.7,31.7,30.21,NW,315,1.6,1.6,82,0.00,,,0.00,WUHU216HW,2013-01-12 08:50:00,
2013-01-12 00:55:00,36.7,32.1,30.21,NW,315,2.5,2.5,83,0.00,,,0.00,WUHU216HW,2013-01-12 08:55:00,
2013-01-12 01:00:00,37.1,32.4,30.21,WNW,293,0.9,2.9,83,0.00,,,0.00,WUHU216HW,2013-01-12 09:00:00,
2013-01-12 01:06:00,37.1,32.4,30.21,North,0,1.3,3.1,83,0.00,,,0.00,WUHU216HW,2013-01-12 09:06:00,
2013-01-12 01:11:00,37.1,32.4,30.21,NNW,338,1.1,3.1,83,0.00,,,0.00,WUHU216HW,2013-01-12 09:11:00,
2013-01-12 01:16:00,37.1,32.4,30.21,NW,315,1.6,2.5,83,0.00,,,0.00,WUHU216HW,2013-01-12 09:16:00,
2013-01-12 01:21:00,37.1,32.4,30.21,NW,315,0.4,2.5,83,0.00,,,0.00,WUHU216HW,2013-01-12 09:21:00,
2013-01-12 01:26:00,37.1,32.4,30.21,NNW,338,0.7,1.8,83,0.00,,,0.00,WUHU216HW,2013-01-12 09:26:00,
2013-01-12 01:31:00,37.1,32.0,30.21,WNW,293,0.4,2.5,82,0.00,,,0.00,WUHU216HW,2013-01-12 09:31:00,
2013-01-12 01:36:00,37.1,32.0,30.21,NNW,338,1.1,1.8,82,0.00,,,0.00,WUHU216HW,2013-01-12 09:36:00,
2013-01-12 01:41:00,37.1,32.4,30.21,NW,315,1.6,1.6,83,0.00,,,0.00,WUHU216HW,2013-01-12 09:41:00,
2013-01-12 01:46:00,37.1,32.0,30.22,WNW,293,1.1,1.6,82,0.00,,,0.00,WUHU216HW,2013-01-12 09:46:00,
2013-01-12 01:51:00,37.1,32.0,30.22,NW,315,1.1,1.1,82,0.00,,,0.00,WUHU216HW,2013-01-12 09:51:00,
2013-01-12 01:56:00,37.3,32.2,30.22,NW,315,0.4,1.1,82,0.00,,,0.00,WUHU216HW,2013-01-12 09:56:00,
2013-01-12 02:01:00,37.3,32.2,30.22,NE,45,0.4,1.1,82,0.00,,,0.00,WUHU216HW,2013-01-12 10:01:00,
2013-01-12 02:06:00,37.3,32.2,30.22,ENE,68,0.7,1.1,82,0.00,,,0.00,WUHU216HW,2013-01-12 10:06:00,
2013-01-12 02:11:00,37.3,32.2,30.22,NW,315,1.1,1.1,82,0.00,,,0.00,WUHU216HW,2013-01-12 10:11:00,
2013-01-12 02:16:00,37.3,32.2,30.22,WNW,293,1.6,1.6,82,0.00,,,0.00,WUHU216HW,2013-01-12 10:16:00,
2013-01-12 02:21:00,37.3,32.2,30.22,North,0,0.2,1.6,82,0.00,,,0.00,WUHU216HW,2013-01-12 10:21:00,
2013-01-12 02:26:00,37.3,32.2,30.22,NNW,338,0.0,0.7,82,0.00,,,0.00,WUHU216HW,2013-01-12 10:26:00,
2013-01-12 02:31:00,37.3,32.2,30.22,West,270,1.6,1.6,82,0.00,,,0.00,WUHU216HW,2013-01-12 10:31:00,
2013-01-12 02:36:00,37.3,32.2,30.22,NNW,338,0.0,1.6,82,0.00,,,0.00,WUHU216HW,2013-01-12 10:36:00,
2013-01-12 02:41:00,37.1,32.0,30.23,North,0,0.0,0.4,82,0.00,,,0.00,WUHU216HW,2013-01-12 10:41:00,
2013-01-12 02:46:00,37.1,32.0,30.23,North,0,0.4,1.6,82,0.00,,,0.00,WUHU216HW,2013-01-12 10:46:00,
2013-01-12 02:52:00,37.1,32.0,30.23,NNW,338,0.4,1.8,82,0.00,,,0.00,WUHU216HW,2013-01-12 10:52:00,
2013-01-12 02:57:00,36.9,31.9,30.23,NNE,23,0.9,1.8,82,0.00,,,0.00,WUHU216HW,2013-01-12 10:57:00,
2013-01-12 03:02:00,36.9,31.9,30.23,WNW,293,0.7,3.4,82,0.00,,,0.00,WUHU216HW,2013-01-12 11:02:00,
2013-01-12 03:07:00,37.1,32.0,30.23,NW,315,0.2,3.4,82,0.00,,,0.00,WUHU216HW,2013-01-12 11:07:00,
2013-01-12 03:12:00,37.1,32.0,30.23,NW,315,0.2,2.9,82,0.00,,,0.00,WUHU216HW,2013-01-12 11:12:00,
2013-01-12 03:17:00,36.9,31.9,30.22,North,0,0.2,1.8,82,0.00,,,0.00,WUHU216HW,2013-01-12 11:17:00,
2013-01-12 03:22:00,36.9,31.9,30.22,NNW,338,0.7,1.6,82,0.00,,,0.00,WUHU216HW,2013-01-12 11:22:00,
2013-01-12 03:27:00,36.9,31.9,30.22,NW,315,1.6,2.5,82,0.00,,,0.00,WUHU216HW,2013-01-12 11:27:00,
2013-01-12 03:32:00,36.9,31.9,30.23,ENE,68,0.7,2.5,82,0.00,,,0.00,WUHU216HW,2013-01-12 11:32:00,
2013-01-12 03:37:00,36.7,31.7,30.22,North,0,0.7,2.7,82,0.00,,,0.00,WUHU216HW,2013-01-12 11:37:00,
2013-01-12 03:42:00,36.7,31.7,30.22,NW,315,1.1,2.7,82,0.00,,,0.00,WUHU216HW,2013-01-12 11:42:00,
2013-01-12 03:47:00,36.7,31.7,30.22,NW,315,1.8,4.0,82,0.00,,,0.00,WUHU216HW,2013-01-12 11:47:00,
2013-01-12 03:52:00,36.7,31.7,30.22,NNW,338,0.9,4.0,82,0.00,,,0.00,WUHU216HW,2013-01-12 11:52:00,
2013-01-12 03:57:00,36.5,31.5,30.22,NW,315,1.8,2.5,82,0.00,,,0.00,WUHU216HW,2013-01-12 11:57:00,
2013-01-12 04:02:00,36.4,31.3,30.22,West,270,2.9,2.9,82,0.00,,,0.00,WUHU216HW,2013-01-12 12:02:00,
2013-01-12 04:08:00,36.4,31.3,30.22,NE,45,2.0,2.9,82,0.00,,,0.00,WUHU216HW,2013-01-12 12:08:00,
2013-01-12 04:13:00,36.2,31.1,30.22,West,270,1.3,2.5,82,0.00,,,0.00,WUHU216HW,2013-01-12 12:13:00,
2013-01-12 04:18:00,36.0,31.3,30.22,NNW,338,3.1,3.1,83,0.00,,,0.00,WUHU216HW,2013-01-12 12:18:00,
2013-01-12 04:23:00,36.0,31.0,30.22,NW,315,0.9,3.1,82,0.00,,,0.00,WUHU216HW,2013-01-12 12:23:00,
2013-01-12 04:28:00,35.8,30.8,30.22,NW,315,1.1,3.1,82,0.00,,,0.00,WUHU216HW,2013-01-12 12:28:00,
2013-01-12 04:33:00,35.6,30.6,30.22,NW,315,0.4,1.6,82,0.00,,,0.00,WUHU216HW,2013-01-12 12:33:00,
2013-01-12 04:38:00,35.6,30.6,30.22,WNW,293,0.4,1.6,82,0.00,,,0.00,WUHU216HW,2013-01-12 12:38:00,
2013-01-12 04:43:00,35.6,30.6,30.22,NW,315,0.4,2.5,82,0.00,,,0.00,WUHU216HW,2013-01-12 12:43:00,
2013-01-12 04:48:00,35.5,30.4,30.22,WNW,293,0.7,2.5,82,0.00,,,0.00,WUHU216HW,2013-01-12 12:48:00,
2013-01-12 04:53:00,35.3,30.6,30.22,North,0,0.7,1.8,83,0.00,,,0.00,WUHU216HW,2013-01-12 12:53:00,
2013-01-12 04:58:00,35.1,30.4,30.22,NW,315,0.4,2.9,83,0.00,,,0.00,WUHU216HW,2013-01-12 12:58:00,
2013-01-12 05:03:00,35.1,30.4,30.22,WNW,293,0.9,2.9,83,0.00,,,0.00,WUHU216HW,2013-01-12 13:03:00,
2013-01-12 05:08:00,34.9,30.3,30.22,NW,315,1.1,2.2,83,0.00,,,0.00,WUHU216HW,2013-01-12 13:08:00,
2013-01-12 05:13:00,34.9,30.3,30.23,NE,45,0.2,2.7,83,0.00,,,0.00,WUHU216HW,2013-01-12 13:13:00,
2013-01-12 05:18:00,34.7,30.1,30.23,NNW,338,0.4,2.7,83,0.00,,,0.00,WUHU216HW,2013-01-12 13:18:00,
2013-01-12 05:23:00,34.7,30.1,30.23,WNW,293,0.4,1.8,83,0.00,,,0.00,WUHU216HW,2013-01-12 13:23:00,
2013-01-12 05:28:00,34.6,29.5,30.23,North,0,0.0,1.8,82,0.00,,,0.00,WUHU216HW,2013-01-12 13:28:00,
2013-01-12 05:33:00,34.4,29.3,30.23,NE,45,0.4,1.8,82,0.00,,,0.00,WUHU216HW,2013-01-12 13:33:00,
2013-01-12 05:38:00,34.2,29.5,30.24,NW,315,0.4,1.8,83,0.00,,,0.00,WUHU216HW,2013-01-12 13:38:00,
2013-01-12 05:43:00,34.2,29.2,30.24,NNW,338,0.2,0.7,82,0.00,,,0.00,WUHU216HW,2013-01-12 13:43:00,
2013-01-12 05:48:00,34.0,29.4,30.24,WNW,293,0.2,1.1,83,0.00,,,0.00,WUHU216HW,2013-01-12 13:48:00,
2013-01-12 05:53:00,34.0,29.4,30.25,North,0,1.1,1.1,83,0.00,,,0.00,WUHU216HW,2013-01-12 13:53:00,
2013-01-12 05:58:00,34.0,29.4,30.24,North,0,0.7,1.3,83,0.00,,,0.00,WUHU216HW,2013-01-12 13:58:00,
2013-01-12 06:03:00,34.0,29.4,30.25,North,0,0.0,1.6,83,0.00,,,0.00,WUHU216HW,2013-01-12 14:03:00,
2013-01-12 06:09:00,33.8,28.5,30.25,West,270,1.1,1.8,81,0.00,,,0.00,WUHU216HW,2013-01-12 14:09:00,
2013-01-12 06:14:00,33.7,28.4,30.25,WNW,293,0.9,1.8,81,0.00,,,0.00,WUHU216HW,2013-01-12 14:14:00,
2013-01-12 06:19:00,33.7,28.7,30.25,North,0,0.2,1.8,82,0.00,,,0.00,WUHU216HW,2013-01-12 14:19:00,
2013-01-12 06:24:00,33.5,28.5,30.26,NNE,23,0.2,1.8,82,0.00,,,0.00,WUHU216HW,2013-01-12 14:24:00,
2013-01-12 06:29:00,33.5,28.5,30.25,NW,315,0.2,1.8,82,0.00,,,0.00,WUHU216HW,2013-01-12 14:29:00,
2013-01-12 06:34:00,33.5,28.5,30.26,West,270,1.6,1.6,82,0.00,,,0.00,WUHU216HW,2013-01-12 14:34:00,
2013-01-12 06:39:00,33.3,28.4,30.26,NW,315,0.4,1.6,82,0.00,,,0.00,WUHU216HW,2013-01-12 14:39:00,
2013-01-12 06:44:00,33.3,28.4,30.26,NW,315,0.2,1.3,82,0.00,,,0.00,WUHU216HW,2013-01-12 14:44:00,
2013-01-12 06:49:00,33.1,28.2,30.27,NNE,23,0.0,1.3,82,0.00,,,0.00,WUHU216HW,2013-01-12 14:49:00,
2013-01-12 06:54:00,33.1,28.2,30.27,NW,315,0.4,1.3,82,0.00,,,0.00,WUHU216HW,2013-01-12 14:54:00,
2013-01-12 06:59:00,32.9,28.0,30.27,NW,315,0.4,0.9,82,0.00,,,0.00,WUHU216HW,2013-01-12 14:59:00,
2013-01-12 07:04:00,32.9,28.0,30.27,NW,315,0.4,0.9,82,0.00,,,0.00,WUHU216HW,2013-01-12 15:04:00,
2013-01-12 07:09:00,32.9,28.0,30.28,North,0,0.2,0.9,82,0.00,,,0.00,WUHU216HW,2013-01-12 15:09:00,
2013-01-12 07:15:00,32.8,27.9,30.28,WNW,293,0.4,0.4,82,0.00,,,0.00,WUHU216HW,2013-01-12 15:15:00,
2013-01-12 07:20:00,32.6,27.7,30.28,NW,315,0.0,0.4,82,0.00,,,0.00,WUHU216HW,2013-01-12 15:20:00,
2013-01-12 07:25:00,32.6,27.7,30.29,NW,315,0.0,0.4,82,0.00,,,0.00,WUHU216HW,2013-01-12 15:25:00,
2013-01-12 07:30:00,32.4,27.5,30.28,NNE,23,0.0,0.2,82,0.00,,,0.00,WUHU216HW,2013-01-12 15:30:00,
2013-01-12 07:35:00,32.4,27.5,30.28,WNW,293,0.0,0.4,82,0.00,,,0.00,WUHU216HW,2013-01-12 15:35:00,
2013-01-12 07:40:00,32.4,27.5,30.29,North,0,0.0,0.4,82,0.00,,,0.00,WUHU216HW,2013-01-12 15:40:00,
2013-01-12 07:45:00,32.4,27.5,30.29,NNW,338,0.0,0.2,82,0.00,,,0.00,WUHU216HW,2013-01-12 15:45:00,
2013-01-12 07:50:00,32.2,27.4,30.29,North,0,0.0,0.0,82,0.00,,,0.00,WUHU216HW,2013-01-12 15:50:00,
2013-01-12 07:55:00,32.2,27.4,30.29,North,0,0.0,0.0,82,0.00,,,0.00,WUHU216HW,2013-01-12 15:55:00,
2013-01-12 08:00:00,32.2,27.4,30.29,NNW,338,0.0,0.0,82,0.00,,,0.00,WUHU216HW,2013-01-12 16:00:00,
2013-01-12 08:05:00,32.2,27.4,30.29,North,0,0.0,0.0,82,0.00,,,0.00,WUHU216HW,2013-01-12 16:05:00,
2013-01-12 08:10:00,32.2,27.4,30.29,North,0,0.0,0.0,82,0.00,,,0.00,WUHU216HW,2013-01-12 16:10:00,
2013-01-12 08:15:00,32.2,27.6,30.29,North,0,0.0,0.0,83,0.00,,,0.00,WUHU216HW,2013-01-12 16:15:00,
2013-01-12 08:20:00,32.2,27.6,30.29,NW,315,0.0,0.7,83,0.00,,,0.00,WUHU216HW,2013-01-12 16:20:00,
2013-01-12 08:25:00,32.4,27.8,30.29,NW,315,0.0,0.7,83,0.00,,,0.00,WUHU216HW,2013-01-12 16:25:00,
2013-01-12 08:30:00,32.4,27.8,30.29,ENE,68,0.0,0.7,83,0.00,,,0.00,WUHU216HW,2013-01-12 16:30:00,
2013-01-12 08:36:00,32.8,28.2,30.30,North,0,0.9,1.1,83,0.00,,,0.00,WUHU216HW,2013-01-12 16:36:00,
2013-01-12 08:41:00,32.9,28.0,30.29,NW,315,0.0,1.1,82,0.00,,,0.00,WUHU216HW,2013-01-12 16:41:00,
2013-01-12 08:46:00,33.5,28.5,30.29,NE,45,0.7,1.1,82,0.00,,,0.00,WUHU216HW,2013-01-12 16:46:00,
2013-01-12 08:51:00,33.8,28.5,30.30,East,90,1.6,1.6,81,0.00,,,0.00,WUHU216HW,2013-01-12 16:51:00,
2013-01-12 08:56:00,34.2,29.2,30.30,NE,45,0.4,1.6,82,0.00,,,0.00,WUHU216HW,2013-01-12 16:56:00,
2013-01-12 09:01:00,34.6,29.3,30.30,NNW,338,0.0,1.8,81,0.00,,,0.00,WUHU216HW,2013-01-12 17:01:00,
2013-01-12 09:06:00,34.9,29.3,30.30,North,0,0.0,1.8,80,0.00,,,0.00,WUHU216HW,2013-01-12 17:06:00,
2013-01-12 09:11:00,35.1,29.5,30.30,ENE,68,0.2,1.8,80,0.00,,,0.00,WUHU216HW,2013-01-12 17:11:00,
2013-01-12 09:16:00,35.5,29.9,30.30,NW,315,1.1,1.8,80,0.00,,,0.00,WUHU216HW,2013-01-12 17:16:00,
2013-01-12 09:21:00,35.6,30.1,30.30,North,0,0.7,1.1,80,0.00,,,0.00,WUHU216HW,2013-01-12 17:21:00,
2013-01-12 09:26:00,36.0,30.1,30.30,ENE,68,0.4,1.1,79,0.00,,,0.00,WUHU216HW,2013-01-12 17:26:00,
2013-01-12 09:31:00,36.0,29.8,30.30,NW,315,0.4,2.7,78,0.00,,,0.00,WUHU216HW,2013-01-12 17:31:00,
2013-01-12 09:36:00,36.4,30.4,30.30,North,0,0.4,2.7,79,0.00,,,0.00,WUHU216HW,2013-01-12 17:36:00,
2013-01-12 09:41:00,36.4,30.2,30.30,North,0,0.4,1.8,78,0.00,,,0.00,WUHU216HW,2013-01-12 17:41:00,
2013-01-12 09:47:00,36.7,30.5,30.30,North,0,0.7,1.8,78,0.00,,,0.00,WUHU216HW,2013-01-12 17:47:00,
2013-01-12 09:52:00,36.9,30.3,30.30,NNE,23,0.4,0.9,77,0.00,,,0.00,WUHU216HW,2013-01-12 17:52:00,
2013-01-12 09:57:00,37.1,30.5,30.30,NW,315,0.2,0.9,77,0.00,,,0.00,WUHU216HW,2013-01-12 17:57:00,
2013-01-12 10:02:00,37.4,30.9,30.30,West,270,0.4,1.1,77,0.00,,,0.00,WUHU216HW,2013-01-12 18:02:00,
2013-01-12 10:07:00,37.6,31.1,30.30,ENE,68,0.4,1.8,77,0.00,,,0.00,WUHU216HW,2013-01-12 18:07:00,
2013-01-12 10:12:00,37.8,30.9,30.30,WNW,293,1.8,1.8,76,0.00,,,0.00,WUHU216HW,2013-01-12 18:12:00,
2013-01-12 10:17:00,38.0,31.1,30.30,NW,315,1.1,1.8,76,0.00,,,0.00,WUHU216HW,2013-01-12 18:17:00,
2013-01-12 10:22:00,38.3,31.4,30.30,WNW,293,2.0,2.5,76,0.00,,,0.00,WUHU216HW,2013-01-12 18:22:00,
2013-01-12 10:27:00,38.5,32.0,30.30,NW,315,1.1,2.5,77,0.00,,,0.00,WUHU216HW,2013-01-12 18:27:00,
2013-01-12 10:32:00,38.7,31.4,30.30,ENE,68,2.2,2.2,75,0.00,,,0.00,WUHU216HW,2013-01-12 18:32:00,
2013-01-12 10:37:00,38.9,31.6,30.30,NNE,23,0.4,2.2,75,0.00,,,0.00,WUHU216HW,2013-01-12 18:37:00,
2013-01-12 10:42:00,39.2,32.0,30.29,NNW,338,0.4,1.6,75,0.00,,,0.00,WUHU216HW,2013-01-12 18:42:00,
2013-01-12 10:47:00,39.4,31.8,30.29,WNW,293,0.7,2.5,74,0.00,,,0.00,WUHU216HW,2013-01-12 18:47:00,
2013-01-12 10:52:00,39.6,31.6,30.29,West,270,1.1,2.5,73,0.00,,,0.00,WUHU216HW,2013-01-12 18:52:00,
2013-01-12 10:57:00,39.8,31.8,30.29,NW,315,2.9,3.4,73,0.00,,,0.00,WUHU216HW,2013-01-12 18:57:00,
2013-01-12 11:03:00,40.0,31.3,30.29,WNW,293,3.4,3.4,71,0.00,,,0.00,WUHU216HW,2013-01-12 19:03:00,
2013-01-12 11:08:00,40.1,31.5,30.29,WSW,248,0.0,3.4,71,0.00,,,0.00,WUHU216HW,2013-01-12 19:08:00,
2013-01-12 11:13:00,40.5,31.5,30.28,WNW,293,4.0,4.0,70,0.00,,,0.00,WUHU216HW,2013-01-12 19:13:00,
2013-01-12 11:18:00,40.7,31.3,30.28,WNW,293,1.3,4.0,69,0.00,,,0.00,WUHU216HW,2013-01-12 19:18:00,
2013-01-12 11:23:00,40.9,31.9,30.28,NW,315,2.0,2.0,70,0.00,,,0.00,WUHU216HW,2013-01-12 19:23:00,
2013-01-12 11:28:00,41.0,31.7,30.27,NW,315,1.3,2.0,69,0.00,,,0.00,WUHU216HW,2013-01-12 19:28:00,
2013-01-12 11:33:00,41.4,31.7,30.27,East,90,1.8,2.0,68,0.00,,,0.00,WUHU216HW,2013-01-12 19:33:00,
2013-01-12 11:38:00,41.6,31.8,30.27,NW,315,2.7,2.7,68,0.00,,,0.00,WUHU216HW,2013-01-12 19:38:00,
2013-01-12 11:43:00,41.6,31.4,30.27,NNE,23,0.7,4.0,67,0.00,,,0.00,WUHU216HW,2013-01-12 19:43:00,
2013-01-12 11:48:00,41.8,31.6,30.27,NW,315,5.4,6.3,67,0.00,,,0.00,WUHU216HW,2013-01-12 19:48:00,
2013-01-12 11:53:00,41.9,31.0,30.26,NW,315,4.3,6.3,65,0.00,,,0.00,WUHU216HW,2013-01-12 19:53:00,
2013-01-12 11:58:00,42.1,30.8,30.26,NW,315,2.5,4.3,64,0.00,,,0.00,WUHU216HW,2013-01-12 19:58:00,
2013-01-12 12:03:00,42.1,31.1,30.26,WNW,293,2.9,3.4,65,0.00,,,0.00,WUHU216HW,2013-01-12 20:03:00,
2013-01-12 12:09:00,42.1,31.1,30.26,NW,315,0.4,3.4,65,0.00,,,0.00,WUHU216HW,2013-01-12 20:09:00,
2013-01-12 12:14:00,42.3,31.3,30.25,NW,315,4.0,4.9,65,0.00,,,0.00,WUHU216HW,2013-01-12 20:14:00,
2013-01-12 12:19:00,42.5,31.5,30.25,NW,315,0.7,4.9,65,0.00,,,0.00,WUHU216HW,2013-01-12 20:19:00,
2013-01-12 12:24:00,42.7,31.3,30.25,NE,45,1.1,3.6,64,0.00,,,0.00,WUHU216HW,2013-01-12 20:24:00,
2013-01-12 12:29:00,42.8,31.5,30.24,WNW,293,1.1,3.6,64,0.00,,,0.00,WUHU216HW,2013-01-12 20:29:00,
2013-01-12 12:34:00,43.0,31.7,30.24,WNW,293,1.6,2.9,64,0.00,,,0.00,WUHU216HW,2013-01-12 20:34:00,
2013-01-12 12:39:00,43.4,31.6,30.24,NW,315,2.2,2.2,63,0.00,,,0.00,WUHU216HW,2013-01-12 20:39:00,
2013-01-12 12:44:00,43.6,31.0,30.24,NW,315,2.2,3.4,61,0.00,,,0.00,WUHU216HW,2013-01-12 20:44:00,
2013-01-12 12:49:00,43.6,31.8,30.24,NW,315,2.5,3.4,63,0.00,,,0.00,WUHU216HW,2013-01-12 20:49:00,
2013-01-12 12:54:00,43.7,32.0,30.23,North,0,0.4,3.6,63,0.00,,,0.00,WUHU216HW,2013-01-12 20:54:00,
2013-01-12 12:59:00,43.9,29.6,30.23,NNW,338,1.1,3.6,57,0.00,,,0.00,WUHU216HW,2013-01-12 20:59:00,
2013-01-12 13:05:00,44.3,30.4,30.23,NW,315,0.4,4.0,58,0.00,,,0.00,WUHU216HW,2013-01-12 21:05:00,
2013-01-12 13:10:00,44.3,30.0,30.23,North,0,2.9,4.0,57,0.00,,,0.00,WUHU216HW,2013-01-12 21:10:00,
2013-01-12 13:15:00,44.3,30.9,30.23,NW,315,1.1,4.3,59,0.00,,,0.00,WUHU216HW,2013-01-12 21:15:00,
2013-01-12 13:20:00,44.3,30.9,30.22,WNW,293,1.1,4.3,59,0.00,,,0.00,WUHU216HW,2013-01-12 21:20:00,
2013-01-12 13:25:00,44.6,30.3,30.22,NNE,23,0.2,2.9,57,0.00,,,0.00,WUHU216HW,2013-01-12 21:25:00,
2013-01-12 13:30:00,44.6,29.9,30.22,NE,45,1.3,2.2,56,0.00,,,0.00,WUHU216HW,2013-01-12 21:30:00,
2013-01-12 13:35:00,45.0,30.7,30.22,NNW,338,0.7,2.2,57,0.00,,,0.00,WUHU216HW,2013-01-12 21:35:00,
2013-01-12 13:40:00,45.0,30.7,30.22,WNW,293,0.4,3.1,57,0.00,,,0.00,WUHU216HW,2013-01-12 21:40:00,
2013-01-12 13:45:00,45.2,30.8,30.22,WNW,293,1.6,3.1,57,0.00,,,0.00,WUHU216HW,2013-01-12 21:45:00,
2013-01-12 13:50:00,45.2,30.3,30.22,SE,135,0.4,2.2,56,0.00,,,0.00,WUHU216HW,2013-01-12 21:50:00,
2013-01-12 13:55:00,45.5,31.1,30.22,SSE,158,0.0,1.8,57,0.00,,,0.00,WUHU216HW,2013-01-12 21:55:00,
2013-01-12 14:00:00,45.5,30.7,30.22,North,0,0.7,1.1,56,0.00,,,0.00,WUHU216HW,2013-01-12 22:00:00,
2013-01-12 14:05:00,45.5,30.7,30.22,NE,45,1.1,2.9,56,0.00,,,0.00,WUHU216HW,2013-01-12 22:05:00,
2013-01-12 14:11:00,45.7,30.0,30.22,NNE,23,0.4,3.1,54,0.00,,,0.00,WUHU216HW,2013-01-12 22:11:00,
2013-01-12 14:16:00,45.7,30.4,30.21,ESE,113,0.2,3.1,55,0.00,,,0.00,WUHU216HW,2013-01-12 22:16:00,
2013-01-12 14:21:00,45.9,28.8,30.21,ENE,68,0.4,2.7,51,0.00,,,0.00,WUHU216HW,2013-01-12 22:21:00,
2013-01-12 14:26:00,45.9,29.3,30.21,SE,135,0.2,2.5,52,0.00,,,0.00,WUHU216HW,2013-01-12 22:26:00,
2013-01-12 14:31:00,45.9,29.7,30.21,NW,315,0.7,1.6,53,0.00,,,0.00,WUHU216HW,2013-01-12 22:31:00,
2013-01-12 14:36:00,45.9,30.2,30.21,North,0,0.2,1.8,54,0.00,,,0.00,WUHU216HW,2013-01-12 22:36:00,
2013-01-12 14:41:00,45.9,29.7,30.21,ENE,68,0.2,1.8,53,0.00,,,0.00,WUHU216HW,2013-01-12 22:41:00,
2013-01-12 14:46:00,46.1,30.2,30.21,South,180,0.4,1.6,54,0.00,,,0.00,WUHU216HW,2013-01-12 22:46:00,
2013-01-12 14:51:00,46.1,30.2,30.21,WNW,293,0.7,1.3,54,0.00,,,0.00,WUHU216HW,2013-01-12 22:51:00,
2013-01-12 14:56:00,45.7,29.5,30.21,North,0,0.9,2.7,53,0.00,,,0.00,WUHU216HW,2013-01-12 22:56:00,
2013-01-12 15:01:00,45.7,29.5,30.21,WSW,248,1.1,2.7,53,0.00,,,0.00,WUHU216HW,2013-01-12 23:01:00,
2013-01-12 15:06:00,45.7,29.1,30.21,NW,315,0.4,3.4,52,0.00,,,0.00,WUHU216HW,2013-01-12 23:06:00,
2013-01-12 15:11:00,45.7,29.1,30.21,ENE,68,0.7,4.0,52,0.00,,,0.00,WUHU216HW,2013-01-12 23:11:00,
2013-01-12 15:16:00,45.7,29.5,30.21,West,270,0.4,4.0,53,0.00,,,0.00,WUHU216HW,2013-01-12 23:16:00,
2013-01-12 15:21:00,45.9,29.3,30.20,ENE,68,0.0,0.9,52,0.00,,,0.00,WUHU216HW,2013-01-12 23:21:00,
2013-01-12 15:26:00,46.1,28.9,30.21,NNE,23,0.7,1.1,51,0.00,,,0.00,WUHU216HW,2013-01-12 23:26:00,
2013-01-12 15:31:00,45.9,29.3,30.20,WSW,248,1.1,4.5,52,0.00,,,0.00,WUHU216HW,2013-01-12 23:31:00,
2013-01-12 15:36:00,45.9,29.3,30.20,NE,45,0.0,4.5,52,0.00,,,0.00,WUHU216HW,2013-01-12 23:36:00,
2013-01-12 15:41:00,45.7,28.6,30.21,ENE,68,0.2,1.3,51,0.00,,,0.00,WUHU216HW,2013-01-12 23:41:00,
2013-01-12 15:46:00,45.9,29.3,30.20,NNE,23,0.4,2.5,52,0.00,,,0.00,WUHU216HW,2013-01-12 23:46:00,
2013-01-12 15:51:00,45.7,28.6,30.20,East,90,1.1,2.5,51,0.00,,,0.00,WUHU216HW,2013-01-12 23:51:00,
2013-01-12 15:57:00,45.7,28.2,30.20,NE,45,0.7,2.7,50,0.00,,,0.00,WUHU216HW,2013-01-12 23:57:00,
2013-01-12 16:02:00,45.7,28.6,30.20,WSW,248,0.0,2.7,51,0.00,,,0.00,WUHU216HW,2013-01-13 00:02:00,
2013-01-12 16:07:00,45.7,28.6,30.20,SE,135,0.0,0.9,51,0.00,,,0.00,WUHU216HW,2013-01-13 00:07:00,
2013-01-12 16:12:00,45.5,28.9,30.20,South,180,0.0,0.9,52,0.00,,,0.00,WUHU216HW,2013-01-13 00:12:00,
2013-01-12 16:17:00,45.4,28.7,30.20,NW,315,0.2,1.1,52,0.00,,,0.00,WUHU216HW,2013-01-13 00:17:00,
2013-01-12 16:22:00,45.2,29.0,30.20,WNW,293,0.9,1.1,53,0.00,,,0.00,WUHU216HW,2013-01-13 00:22:00,
2013-01-12 16:27:00,45.0,28.5,30.20,ENE,68,0.0,1.3,52,0.00,,,0.00,WUHU216HW,2013-01-13 00:27:00,
2013-01-12 16:32:00,45.0,28.9,30.20,WNW,293,0.0,1.3,53,0.00,,,0.00,WUHU216HW,2013-01-13 00:32:00,
2013-01-12 16:37:00,44.6,28.5,30.20,ENE,68,0.0,0.7,53,0.00,,,0.00,WUHU216HW,2013-01-13 00:37:00,
2013-01-12 16:42:00,44.5,28.4,30.20,ENE,68,0.7,0.7,53,0.00,,,0.00,WUHU216HW,2013-01-13 00:42:00,
2013-01-12 16:47:00,44.3,28.2,30.20,ENE,68,0.7,0.7,53,0.00,,,0.00,WUHU216HW,2013-01-13 00:47:00,
2013-01-12 16:52:00,44.1,28.0,30.20,ENE,68,0.0,0.7,53,0.00,,,0.00,WUHU216HW,2013-01-13 00:52:00,
2013-01-12 16:57:00,43.9,28.3,30.20,ENE,68,0.0,0.2,54,0.00,,,0.00,WUHU216HW,2013-01-13 00:57:00,
2013-01-12 17:02:00,43.7,28.2,30.21,ENE,68,0.0,0.0,54,0.00,,,0.00,WUHU216HW,2013-01-13 01:02:00,
2013-01-12 17:07:00,43.6,28.5,30.21,ENE,68,0.0,0.0,55,0.00,,,0.00,WUHU216HW,2013-01-13 01:07:00,
2013-01-12 17:12:00,43.6,28.5,30.21,ENE,68,0.0,0.0,55,0.00,,,0.00,WUHU216HW,2013-01-13 01:12:00,
2013-01-12 17:17:00,43.4,28.3,30.21,ENE,68,0.0,0.0,55,0.00,,,0.00,WUHU216HW,2013-01-13 01:17:00,
2013-01-12 17:22:00,43.2,28.5,30.21,ENE,68,0.0,0.0,56,0.00,,,0.00,WUHU216HW,2013-01-13 01:22:00,
2013-01-12 17:28:00,43.2,28.5,30.21,ENE,68,0.0,0.0,56,0.00,,,0.00,WUHU216HW,2013-01-13 01:28:00,
2013-01-12 17:33:00,43.2,28.5,30.21,ENE,68,0.0,0.0,56,0.00,,,0.00,WUHU216HW,2013-01-13 01:33:00,
2013-01-12 17:38:00,43.0,28.4,30.21,ENE,68,0.0,0.0,56,0.00,,,0.00,WUHU216HW,2013-01-13 01:38:00,
2013-01-12 17:43:00,43.0,28.8,30.21,ENE,68,0.0,0.0,57,0.00,,,0.00,WUHU216HW,2013-01-13 01:43:00,
2013-01-12 17:48:00,42.8,28.6,30.21,ENE,68,0.0,0.0,57,0.00,,,0.00,WUHU216HW,2013-01-13 01:48:00,
2013-01-12 17:53:00,42.8,28.6,30.21,ENE,68,0.0,0.0,57,0.00,,,0.00,WUHU216HW,2013-01-13 01:53:00,
2013-01-12 17:58:00,42.8,28.6,30.21,ENE,68,0.0,0.0,57,0.00,,,0.00,WUHU216HW,2013-01-13 01:58:00,
2013-01-12 18:03:00,42.8,28.6,30.21,ENE,68,0.0,0.0,57,0.00,,,0.00,WUHU216HW,2013-01-13 02:03:00,
2013-01-12 18:08:00,42.7,28.5,30.21,ENE,68,0.0,0.0,57,0.00,,,0.00,WUHU216HW,2013-01-13 02:08:00,
2013-01-12 18:13:00,42.5,28.7,30.21,ENE,68,0.0,0.0,58,0.00,,,0.00,WUHU216HW,2013-01-13 02:13:00,
2013-01-12 18:18:00,42.5,28.7,30.21,ENE,68,0.0,0.0,58,0.00,,,0.00,WUHU216HW,2013-01-13 02:18:00,
2013-01-12 18:23:00,42.3,28.5,30.21,ENE,68,0.0,0.0,58,0.00,,,0.00,WUHU216HW,2013-01-13 02:23:00,
2013-01-12 18:28:00,42.1,28.4,30.21,ENE,68,0.0,0.0,58,0.00,,,0.00,WUHU216HW,2013-01-13 02:28:00,
2013-01-12 18:34:00,42.1,28.8,30.21,ENE,68,0.0,0.0,59,0.00,,,0.00,WUHU216HW,2013-01-13 02:34:00,
2013-01-12 18:39:00,41.8,28.0,30.21,ENE,68,0.0,0.0,58,0.00,,,0.00,WUHU216HW,2013-01-13 02:39:00,
2013-01-12 18:44:00,41.8,28.4,30.21,ENE,68,0.0,0.0,59,0.00,,,0.00,WUHU216HW,2013-01-13 02:44:00,
2013-01-12 18:49:00,41.4,28.2,30.21,ENE,68,0.0,0.0,59,0.00,,,0.00,WUHU216HW,2013-01-13 02:49:00,
2013-01-12 18:54:00,41.2,28.0,30.21,ENE,68,0.0,0.0,59,0.00,,,0.00,WUHU216HW,2013-01-13 02:54:00,
2013-01-12 18:59:00,41.0,28.3,30.21,ENE,68,0.0,0.0,60,0.00,,,0.00,WUHU216HW,2013-01-13 02:59:00,
2013-01-12 19:04:00,40.9,28.1,30.21,ENE,68,0.0,0.0,60,0.00,,,0.00,WUHU216HW,2013-01-13 03:04:00,
2013-01-12 19:09:00,40.7,27.9,30.21,ENE,68,0.0,0.0,60,0.00,,,0.00,WUHU216HW,2013-01-13 03:09:00,
2013-01-12 19:14:00,40.3,27.5,30.21,ENE,68,0.0,0.0,60,0.00,,,0.00,WUHU216HW,2013-01-13 03:14:00,
2013-01-12 19:19:00,40.1,27.4,30.21,ENE,68,0.0,0.0,60,0.00,,,0.00,WUHU216HW,2013-01-13 03:19:00,
2013-01-12 19:24:00,40.0,27.5,30.21,ENE,68,0.0,0.0,61,0.00,,,0.00,WUHU216HW,2013-01-13 03:24:00,
2013-01-12 19:30:00,39.6,27.2,30.22,ENE,68,0.0,0.0,61,0.00,,,0.00,WUHU216HW,2013-01-13 03:30:00,
2013-01-12 19:35:00,39.4,27.4,30.22,ENE,68,0.0,0.0,62,0.00,,,0.00,WUHU216HW,2013-01-13 03:35:00,
2013-01-12 19:40:00,39.2,27.2,30.22,ENE,68,0.0,0.0,62,0.00,,,0.00,WUHU216HW,2013-01-13 03:40:00,
2013-01-12 19:45:00,38.9,27.3,30.22,ENE,68,0.0,0.0,63,0.00,,,0.00,WUHU216HW,2013-01-13 03:45:00,
2013-01-12 19:50:00,38.5,26.9,30.21,ENE,68,0.0,0.0,63,0.00,,,0.00,WUHU216HW,2013-01-13 03:50:00,
2013-01-12 19:55:00,38.5,26.9,30.21,ENE,68,0.0,0.0,63,0.00,,,0.00,WUHU216HW,2013-01-13 03:55:00,
2013-01-12 20:00:00,38.2,26.7,30.21,ENE,68,0.0,0.0,63,0.00,,,0.00,WUHU216HW,2013-01-13 04:00:00,
2013-01-12 20:05:00,37.8,26.3,30.22,ENE,68,0.0,0.0,63,0.00,,,0.00,WUHU216HW,2013-01-13 04:05:00,
2013-01-12 20:10:00,37.6,26.6,30.22,ENE,68,0.0,0.0,64,0.00,,,0.00,WUHU216HW,2013-01-13 04:10:00,
2013-01-12 20:15:00,37.4,26.4,30.22,ENE,68,0.0,0.0,64,0.00,,,0.00,WUHU216HW,2013-01-13 04:15:00,
2013-01-12 20:20:00,37.3,26.6,30.22,ENE,68,0.0,0.0,65,0.00,,,0.00,WUHU216HW,2013-01-13 04:20:00,
2013-01-12 20:25:00,37.1,26.7,30.22,ENE,68,0.0,0.0,66,0.00,,,0.00,WUHU216HW,2013-01-13 04:25:00,
2013-01-12 20:30:00,36.9,26.6,30.22,ENE,68,0.0,0.0,66,0.00,,,0.00,WUHU216HW,2013-01-13 04:30:00,
2013-01-12 20:35:00,36.7,26.8,30.22,ENE,68,0.0,0.0,67,0.00,,,0.00,WUHU216HW,2013-01-13 04:35:00,
2013-01-12 20:40:00,36.5,26.7,30.22,ENE,68,0.0,0.0,67,0.00,,,0.00,WUHU216HW,2013-01-13 04:40:00,
2013-01-12 20:46:00,36.4,26.5,30.22,ENE,68,0.0,0.0,67,0.00,,,0.00,WUHU216HW,2013-01-13 04:46:00,
2013-01-12 20:51:00,36.0,26.5,30.22,ENE,68,0.0,0.0,68,0.00,,,0.00,WUHU216HW,2013-01-13 04:51:00,
2013-01-12 20:56:00,35.8,26.3,30.22,ENE,68,0.0,0.0,68,0.00,,,0.00,WUHU216HW,2013-01-13 04:56:00,
2013-01-12 21:00:00,35.6,26.1,30.22,ENE,68,0.0,0.0,68,0.00,,,0.00,WUHU216HW,2013-01-13 05:00:00,
2013-01-12 21:01:00,35.6,26.1,30.22,ENE,68,0.0,0.0,68,0.00,,,0.00,WUHU216HW,2013-01-13 05:01:00,
2013-01-12 21:03:00,35.6,26.1,30.22,ENE,68,0.0,0.0,68,0.00,,,0.00,WUHU216HW,2013-01-13 05:03:00,
2013-01-12 21:08:00,35.5,26.3,30.22,ENE,68,0.0,0.0,69,0.00,,,0.00,WUHU216HW,2013-01-13 05:08:00,
2013-01-12 21:13:00,35.3,26.1,30.22,ENE,68,0.0,0.0,69,0.00,,,0.00,WUHU216HW,2013-01-13 05:13:00,
2013-01-12 21:18:00,35.1,26.3,30.22,ENE,68,0.0,0.0,70,0.00,,,0.00,WUHU216HW,2013-01-13 05:18:00,
2013-01-12 21:23:00,34.9,26.1,30.22,ENE,68,0.0,0.0,70,0.00,,,0.00,WUHU216HW,2013-01-13 05:23:00,
2013-01-12 21:28:00,34.9,26.1,30.22,ENE,68,0.0,0.0,70,0.00,,,0.00,WUHU216HW,2013-01-13 05:28:00,
2013-01-12 21:33:00,34.7,26.3,30.22,ENE,68,0.0,0.0,71,0.00,,,0.00,WUHU216HW,2013-01-13 05:33:00,
2013-01-12 21:38:00,34.6,26.1,30.23,ENE,68,0.0,0.0,71,0.00,,,0.00,WUHU216HW,2013-01-13 05:38:00,
2013-01-12 21:43:00,34.4,25.9,30.23,ENE,68,0.0,0.0,71,0.00,,,0.00,WUHU216HW,2013-01-13 05:43:00,
2013-01-12 21:48:00,34.2,25.4,30.23,ENE,68,0.0,0.0,70,0.00,,,0.00,WUHU216HW,2013-01-13 05:48:00,
2013-01-12 21:53:00,34.2,25.8,30.23,ENE,68,0.0,0.0,71,0.00,,,0.00,WUHU216HW,2013-01-13 05:53:00,
2013-01-12 21:58:00,34.0,25.6,30.23,ENE,68,0.0,0.0,71,0.00,,,0.00,WUHU216HW,2013-01-13 05:58:00,
2013-01-12 22:03:00,33.8,25.4,30.23,ENE,68,0.0,0.0,71,0.00,,,0.00,WUHU216HW,2013-01-13 06:03:00,
2013-01-12 22:09:00,33.8,25.7,30.23,ENE,68,0.0,0.0,72,0.00,,,0.00,WUHU216HW,2013-01-13 06:09:00,
2013-01-12 22:14:00,33.7,25.5,30.23,ENE,68,0.0,0.0,72,0.00,,,0.00,WUHU216HW,2013-01-13 06:14:00,
2013-01-12 22:19:00,33.5,25.4,30.24,ENE,68,0.0,0.0,72,0.00,,,0.00,WUHU216HW,2013-01-13 06:19:00,
2013-01-12 22:24:00,33.5,25.7,30.24,ENE,68,0.0,0.0,73,0.00,,,0.00,WUHU216HW,2013-01-13 06:24:00,
2013-01-12 22:29:00,33.3,25.5,30.24,ENE,68,0.0,0.0,73,0.00,,,0.00,WUHU216HW,2013-01-13 06:29:00,
2013-01-12 22:34:00,33.3,25.5,30.24,ENE,68,0.0,0.0,73,0.00,,,0.00,WUHU216HW,2013-01-13 06:34:00,
2013-01-12 22:39:00,33.1,25.4,30.24,ENE,68,0.0,0.0,73,0.00,,,0.00,WUHU216HW,2013-01-13 06:39:00,
2013-01-12 22:44:00,33.1,25.4,30.24,ENE,68,0.0,0.0,73,0.00,,,0.00,WUHU216HW,2013-01-13 06:44:00,
2013-01-12 22:49:00,32.9,25.2,30.24,ENE,68,0.0,0.0,73,0.00,,,0.00,WUHU216HW,2013-01-13 06:49:00,
2013-01-12 22:54:00,32.9,25.2,30.24,ENE,68,0.0,0.0,73,0.00,,,0.00,WUHU216HW,2013-01-13 06:54:00,
2013-01-12 22:59:00,32.8,25.4,30.24,ENE,68,0.0,0.0,74,0.00,,,0.00,WUHU216HW,2013-01-13 06:59:00,
2013-01-12 23:04:00,32.8,25.4,30.25,ENE,68,0.0,0.0,74,0.00,,,0.00,WUHU216HW,2013-01-13 07:04:00,
2013-01-12 23:09:00,32.6,25.2,30.25,ENE,68,0.0,0.0,74,0.00,,,0.00,WUHU216HW,2013-01-13 07:09:00,
2013-01-12 23:14:00,32.6,25.2,30.25,ENE,68,0.0,0.0,74,0.00,,,0.00,WUHU216HW,2013-01-13 07:14:00,
2013-01-12 23:20:00,32.4,25.4,30.25,ENE,68,0.0,0.0,75,0.00,,,0.00,WUHU216HW,2013-01-13 07:20:00,
2013-01-12 23:25:00,32.4,25.4,30.25,North,0,0.0,0.0,75,0.00,,,0.00,WUHU216HW,2013-01-13 07:25:00,
2013-01-12 23:30:00,32.4,25.4,30.25,North,0,0.0,0.0,75,0.00,,,0.00,WUHU216HW,2013-01-13 07:30:00,
2013-01-12 23:35:00,32.2,25.2,30.25,North,0,0.0,0.0,75,0.00,,,0.00,WUHU216HW,2013-01-13 07:35:00,
2013-01-12 23:40:00,32.2,25.2,30.25,North,0,0.0,0.0,75,0.00,,,0.00,WUHU216HW,2013-01-13 07:40:00,
2013-01-12 23:45:00,32.0,25.4,30.26,NNE,23,0.0,0.0,76,0.00,,,0.00,WUHU216HW,2013-01-13 07:45:00,
2013-01-12 23:50:00,32.2,25.5,30.25,NNE,23,0.0,0.0,76,0.00,,,0.00,WUHU216HW,2013-01-13 07:50:00,
2013-01-12 23:55:00,32.2,25.5,30.25,NNE,23,0.0,0.0,76,0.00,,,0.00,WUHU216HW,2013-01-13 07:55:00,